Time,TemperatureF,DewpointF,PressureIn,WindDirection,WindDirectionDegrees,WindSpeedMPH,WindSpeedGustMPH,Humidity,HourlyPrecipIn,Conditions,Clouds,dailyrainin,SolarRadiationWatts/m^2,SoftwareType,DateUTC
2013-08-20 00:02:00,69.0,69.0,-100.00,South,191,0.0,1.0,100,0.00,,,0.01,0.000000,,2013-08-20 05:02:00,
2013-08-20 00:43:00,69.0,69.0,-100.00,ENE,70,0.0,0.0,100,0.00,,,0.01,0.000000,,2013-08-20 05:43:00,
2013-08-20 00:52:00,69.0,69.0,-100.00,ENE,70,0.0,0.0,100,0.00,,,0.01,0.000000,,2013-08-20 05:52:00,
2013-08-20 01:01:00,69.0,69.0,-100.00,ENE,70,0.0,0.0,100,0.00,,,0.01,0.000000,,2013-08-20 06:01:00,
2013-08-20 01:42:00,69.0,69.0,-100.00,East,90,0.0,0.0,100,0.00,,,0.01,0.000000,,2013-08-20 06:42:00,
2013-08-20 01:52:00,69.0,69.0,-100.00,East,90,0.0,0.0,100,0.00,,,0.01,0.000000,,2013-08-20 06:52:00,
2013-08-20 02:01:00,69.0,69.0,-100.00,East,90,0.0,0.0,100,0.00,,,0.01,0.000000,,2013-08-20 07:01:00,
2013-08-20 02:42:00,69.0,69.0,-100.00,East,95,0.0,0.0,100,0.00,,,0.01,0.000000,,2013-08-20 07:42:00,
2013-08-20 02:52:00,69.0,69.0,-100.00,East,95,0.0,0.0,100,0.00,,,0.01,0.000000,,2013-08-20 07:52:00,
2013-08-20 03:02:00,69.0,69.0,-100.00,East,95,0.0,0.0,100,0.00,,,0.01,0.000000,,2013-08-20 08:02:00,
2013-08-20 03:42:00,69.0,69.0,-100.00,South,181,0.0,0.0,100,0.00,,,0.01,0.000000,,2013-08-20 08:42:00,
2013-08-20 03:52:00,69.0,69.0,-100.00,South,181,0.0,0.0,100,0.00,,,0.01,0.000000,,2013-08-20 08:52:00,
2013-08-20 04:01:00,69.0,69.0,-100.00,South,181,0.0,0.0,100,0.00,,,0.01,0.000000,,2013-08-20 09:01:00,
2013-08-20 04:42:00,68.0,68.0,-100.00,North,352,0.0,0.0,100,0.00,,,0.01,0.000000,,2013-08-20 09:42:00,
2013-08-20 04:53:00,68.0,68.0,-100.00,North,352,0.0,0.0,100,0.00,,,0.01,0.000000,,2013-08-20 09:53:00,
2013-08-20 05:04:00,68.0,68.0,-100.00,North,352,0.0,0.0,100,0.00,,,0.01,0.000000,,2013-08-20 10:04:00,
2013-08-20 05:43:00,68.0,68.0,-100.00,NNE,30,0.0,0.0,100,0.00,,,0.01,0.000000,,2013-08-20 10:43:00,
2013-08-20 05:52:00,68.0,68.0,-100.00,NNE,30,0.0,0.0,100,0.00,,,0.01,0.000000,,2013-08-20 10:52:00,
2013-08-20 06:02:00,68.0,68.0,-100.00,NNE,30,0.0,0.0,100,0.00,,,0.01,0.000000,,2013-08-20 11:02:00,
2013-08-20 06:42:00,68.0,68.0,-100.00,East,94,0.0,0.0,100,0.00,,,0.01,0.000000,,2013-08-20 11:42:00,
2013-08-20 06:52:00,68.0,68.0,-100.00,East,94,0.0,0.0,100,0.00,,,0.01,0.000000,,2013-08-20 11:52:00,
2013-08-20 07:01:00,68.0,68.0,-100.00,East,94,0.0,0.0,100,0.00,,,0.01,0.000000,,2013-08-20 12:01:00,
2013-08-20 07:42:00,69.0,69.0,-100.00,SE,137,0.0,0.0,100,0.00,,,0.01,22.000000,,2013-08-20 12:42:00,
2013-08-20 07:52:00,69.0,69.0,-100.00,SE,137,0.0,0.0,100,0.00,,,0.01,22.000000,,2013-08-20 12:52:00,
2013-08-20 08:01:00,69.0,69.0,-100.00,SE,137,0.0,0.0,100,0.00,,,0.01,22.000000,,2013-08-20 13:01:00,
2013-08-20 08:42:00,72.0,72.0,-100.00,East,81,0.0,1.0,100,0.00,,,0.00,80.000000,,2013-08-20 13:42:00,
2013-08-20 08:52:00,72.0,72.0,-100.00,East,81,0.0,1.0,100,0.00,,,0.00,80.000000,,2013-08-20 13:52:00,
2013-08-20 09:02:00,72.0,72.0,-100.00,East,81,0.0,1.0,100,0.00,,,0.00,80.000000,,2013-08-20 14:02:00,
2013-08-20 09:42:00,75.0,74.0,-100.00,SE,142,0.0,1.0,96,0.00,,,0.00,123.000000,,2013-08-20 14:42:00,
2013-08-20 09:52:00,75.0,74.0,-100.00,SE,142,0.0,1.0,96,0.00,,,0.00,123.000000,,2013-08-20 14:52:00,
2013-08-20 10:02:00,75.0,74.0,-100.00,SE,142,0.0,1.0,96,0.00,,,0.00,123.000000,,2013-08-20 15:02:00,
2013-08-20 10:43:00,71.0,71.0,-100.00,SSW,200,2.0,7.0,100,0.00,,,0.00,47.000000,,2013-08-20 15:43:00,
2013-08-20 10:53:00,71.0,71.0,-100.00,SSW,200,2.0,7.0,100,0.00,,,0.00,47.000000,,2013-08-20 15:53:00,
2013-08-20 11:04:00,71.0,71.0,-100.00,SSW,200,2.0,7.0,100,0.00,,,0.00,47.000000,,2013-08-20 16:04:00,
2013-08-20 11:30:00,-999.0,-99.9,-100.00,SSW,194,3.0,6.0,100,0.00,,,0.00,98.000000,,2013-08-20 16:30:00,
2013-08-20 11:42:00,72.0,72.0,-100.00,SSW,194,3.0,6.0,100,0.00,,,0.00,98.000000,,2013-08-20 16:42:00,
2013-08-20 11:53:00,72.0,72.0,-100.00,SSW,194,3.0,6.0,100,0.00,,,0.00,98.000000,,2013-08-20 16:53:00,
2013-08-20 12:03:00,72.0,72.0,-100.00,SSW,194,3.0,6.0,100,0.00,,,0.00,98.000000,,2013-08-20 17:03:00,
2013-08-20 12:43:00,78.0,76.0,-100.00,East,97,2.0,5.0,95,0.00,,,0.00,364.000000,,2013-08-20 17:43:00,
2013-08-20 12:52:00,78.0,76.0,-100.00,East,97,2.0,5.0,95,0.00,,,0.00,364.000000,,2013-08-20 17:52:00,
2013-08-20 13:02:00,78.0,76.0,-100.00,East,97,2.0,5.0,95,0.00,,,0.00,364.000000,,2013-08-20 18:02:00,
2013-08-20 13:43:00,80.0,71.0,-100.00,SW,215,1.0,5.0,75,0.00,,,0.00,548.000000,,2013-08-20 18:43:00,
2013-08-20 13:52:00,80.0,71.0,-100.00,SW,215,1.0,5.0,75,0.00,,,0.00,548.000000,,2013-08-20 18:52:00,
2013-08-20 14:01:00,80.0,71.0,-100.00,SW,215,1.0,5.0,75,0.00,,,0.00,548.000000,,2013-08-20 19:01:00,
2013-08-20 14:42:00,83.0,77.0,-100.00,ESE,114,2.0,4.0,82,0.00,,,0.00,352.000000,,2013-08-20 19:42:00,
2013-08-20 14:53:00,83.0,77.0,-100.00,ESE,114,2.0,4.0,82,0.00,,,0.00,352.000000,,2013-08-20 19:53:00,
2013-08-20 15:03:00,83.0,77.0,-100.00,ESE,114,2.0,4.0,82,0.00,,,0.00,352.000000,,2013-08-20 20:03:00,
2013-08-20 15:42:00,81.0,73.0,-100.00,SSE,149,1.0,4.0,76,0.00,,,0.00,400.000000,,2013-08-20 20:42:00,
2013-08-20 15:52:00,81.0,73.0,-100.00,SSE,149,1.0,4.0,76,0.00,,,0.00,400.000000,,2013-08-20 20:52:00,
2013-08-20 16:02:00,81.0,73.0,-100.00,SSE,149,1.0,4.0,76,0.00,,,0.00,400.000000,,2013-08-20 21:02:00,
2013-08-20 17:42:00,84.0,76.0,-100.00,SSE,150,2.0,5.0,78,0.00,,,0.00,318.000000,,2013-08-20 22:42:00,
2013-08-20 17:53:00,84.0,76.0,-100.00,SSE,150,2.0,5.0,78,0.00,,,0.00,318.000000,,2013-08-20 22:53:00,
2013-08-20 18:03:00,84.0,76.0,-100.00,SSE,150,2.0,5.0,78,0.00,,,0.00,318.000000,,2013-08-20 23:03:00,
2013-08-20 18:43:00,79.0,73.0,-100.00,SSW,195,3.0,6.0,83,0.00,,,0.00,137.000000,,2013-08-20 23:43:00,
2013-08-20 18:53:00,79.0,73.0,-100.00,SSW,195,3.0,6.0,83,0.00,,,0.00,137.000000,,2013-08-20 23:53:00,
2013-08-20 19:02:00,79.0,73.0,-100.00,SSW,195,3.0,6.0,83,0.00,,,0.00,137.000000,,2013-08-21 00:02:00,
2013-08-20 19:42:00,75.0,71.0,-100.00,South,182,2.0,6.0,88,0.00,,,0.00,57.000000,,2013-08-21 00:42:00,
2013-08-20 19:52:00,75.0,71.0,-100.00,South,182,2.0,6.0,88,0.00,,,0.00,57.000000,,2013-08-21 00:52:00,
2013-08-20 20:02:00,75.0,71.0,-100.00,South,182,2.0,6.0,88,0.00,,,0.00,57.000000,,2013-08-21 01:02:00,
2013-08-20 20:42:00,71.0,71.0,-100.00,East,91,0.0,4.0,99,0.00,,,0.00,3.000000,,2013-08-21 01:42:00,
2013-08-20 20:52:00,71.0,71.0,-100.00,East,91,0.0,4.0,99,0.00,,,0.00,3.000000,,2013-08-21 01:52:00,
2013-08-20 21:02:00,71.0,71.0,-100.00,East,91,0.0,4.0,99,0.00,,,0.00,3.000000,,2013-08-21 02:02:00,
2013-08-20 21:42:00,69.0,69.0,-100.00,NNW,337,1.0,2.0,100,0.00,,,0.00,0.000000,,2013-08-21 02:42:00,
2013-08-20 21:52:00,69.0,69.0,-100.00,NNW,337,1.0,2.0,100,0.00,,,0.00,0.000000,,2013-08-21 02:52:00,
2013-08-20 22:02:00,69.0,69.0,-100.00,NNW,337,1.0,2.0,100,0.00,,,0.00,0.000000,,2013-08-21 03:02:00,
2013-08-20 22:44:00,69.0,69.0,-100.00,SSW,200,1.0,3.0,100,0.00,,,0.00,0.000000,,2013-08-21 03:44:00,
2013-08-20 22:55:00,69.0,69.0,-100.00,SSW,200,1.0,3.0,100,0.00,,,0.00,0.000000,,2013-08-21 03:55:00,
2013-08-20 23:04:00,69.0,69.0,-100.00,SSW,200,1.0,3.0,100,0.00,,,0.00,0.000000,,2013-08-21 04:04:00,
2013-08-20 23:44:00,69.0,69.0,-100.00,SSE,158,0.0,0.0,100,0.00,,,0.00,0.000000,,2013-08-21 04:44:00,
2013-08-20 23:54:00,69.0,69.0,-100.00,SSE,158,0.0,0.0,100,0.00,,,0.00,0.000000,,2013-08-21 04:54:00,